Flag for Germany Weather past 2 weeks in Meissen, Saxony, Germany

Now
48 °F

Light rain. Fog.


Feels Like: 43 °F
Forecast: 44 / 53 °F
Wind: 12 mph from North

Location: Dresden-Klotzsche

Current Time: Oct 23, 2014 at 12:27:49 AM

Latest Report: Oct 22, 2014 at 11:50 PM


Visibility: 2 mi

Pressure: 29.83 "Hg

Humidity: 100%

Dew point: 48 °F

Location of MeissenLocation

Historic Weather in Meissen — Graph

°F

Meissen temperature yesterday

Maximum temperature yesterday: 50 °F (at 12:20 AM)
Minimum temperature yesterday: 41 °F (at 10:50 AM)
Average temperature yesterday: 45 °F

Past Weeks' High & Low Weather Summary

 TemperatureHumidityPressure
High70 °F (Oct 19, 2:50 PM)100% (Oct 10, 8:20 AM)30.24 "Hg (Oct 10, 8:20 AM)
Low41 °F (Oct 22, 10:50 AM)55% (Oct 21, 1:50 PM)29.47 "Hg (Oct 21, 10:20 PM)
Average58 °F85%29.88 "Hg
* Reported Oct 7 11:20 PM — Oct 22 11:20 PM, Meissen, Weather by CustomWeather, © 2014

Note: Actual official high and low records may vary slightly from our data, if they occured in-between our weather recording intervals... More about our weather records

Advertising

Meissen weather history for previous 24 hours

 ConditionsComfort  
Time TempWeatherWind HumidityBarometerVisibility
11:20 PM
Oct 22
48 °FLight rain. Fog.12 mph100%29.83 "Hg2 mi
10:50 PM48 °FLight rain. Fog.12 mph100%29.83 "Hg2 mi
10:20 PM46 °FLight rain. Fog.9 mph100%29.80 "Hg1 mi
9:50 PM46 °FPassing clouds.9 mph100%29.80 "Hg1 mi
9:20 PM46 °FDrizzle. Fog.7 mph100%29.77 "Hg1 mi
8:50 PM45 °FLight rain. Fog.6 mph100%29.77 "Hg1 mi
8:20 PM45 °FLight rain. Fog.5 mph100%29.77 "Hg1 mi
7:50 PM45 °FDrizzle. Fog.6 mph100%29.74 "Hg1 mi
7:20 PM45 °FDrizzle. Fog.7 mph100%29.74 "Hg2 mi
6:50 PM45 °FDrizzle. Fog.7 mph100%29.74 "Hg2 mi
6:20 PM43 °FDrizzle. Fog.6 mph100%29.74 "Hg2 mi
5:50 PM45 °FDrizzle. Partly sunny.6 mph93%29.71 "Hg4 mi
5:20 PM45 °FPartly sunny.8 mph93%29.71 "Hg6 mi
4:20 PM45 °FPartly sunny.10 mph87%29.71 "HgN/A
3:50 PM45 °FLight rain. Partly sunny.12 mph87%29.71 "HgN/A
3:20 PM45 °FLight rain. Partly sunny.12 mph93%29.71 "Hg5 mi
2:50 PM45 °FLight rain. Partly sunny.10 mph93%29.68 "Hg6 mi
2:20 PM45 °FLight rain. Partly sunny.12 mph93%29.68 "Hg5 mi
1:50 PM45 °FLight rain. Partly sunny.12 mph93%29.68 "Hg5 mi
1:20 PM45 °FLight rain. Partly sunny.10 mph93%29.68 "Hg4 mi
12:50 PM45 °FLight rain. Partly sunny.10 mph93%29.68 "Hg3 mi
12:20 PM45 °FRain. Partly sunny.9 mph93%29.68 "Hg3 mi
11:50 AM43 °FRain. Partly sunny.8 mph100%29.68 "Hg3 mi
11:20 AM43 °FRain. Partly sunny.9 mph93%29.71 "Hg3 mi
10:50 AM41 °FRain. Partly sunny.12 mph100%29.71 "Hg3 mi
10:20 AM43 °FRain. Partly sunny.13 mph93%29.71 "Hg3 mi
9:50 AM43 °FRain. Partly sunny.12 mph93%29.71 "Hg3 mi
9:20 AM43 °FLight rain. Partly sunny.15 mph87%29.68 "HgN/A
8:50 AM45 °FPartly sunny.13 mph87%29.68 "HgN/A
8:20 AM45 °FPassing clouds.12 mph87%29.68 "HgN/A
7:50 AM45 °FLight rain. Passing clouds.12 mph87%29.65 "HgN/A
7:20 AM45 °FLight rain. Mostly cloudy.12 mph87%29.65 "HgN/A
6:50 AM46 °FLight rain. Mostly cloudy.15 mph82%29.65 "HgN/A
6:20 AM46 °FPassing clouds.13 mph82%29.65 "HgN/A
5:50 AM46 °FPassing clouds.16 mph82%29.65 "HgN/A
5:20 AM46 °FPassing clouds.14 mph82%29.62 "HgN/A
4:50 AM46 °FPassing clouds.13 mph82%29.65 "HgN/A
4:20 AM46 °FPartly cloudy.15 mph87%29.65 "HgN/A
3:50 AM46 °FPartly cloudy.15 mph87%29.65 "HgN/A
3:20 AM46 °FLight rain. Overcast.15 mph93%29.65 "HgN/A
2:50 AM46 °FRain. Partly cloudy.14 mph93%29.62 "HgN/A
2:20 AM46 °FRain. Overcast.16 mph93%29.62 "HgN/A
1:50 AM48 °FLight rain. Mostly cloudy.15 mph94%29.59 "HgN/A
1:20 AM48 °FRain. Mostly cloudy.12 mph94%29.56 "HgN/A
12:50 AM48 °FLight rain. Mostly cloudy.7 mph94%29.56 "HgN/A
12:20 AM50 °FLight rain. Partly cloudy.9 mph88%29.53 "HgN/A
Weather by CustomWeather, © 2014

See weather overviewHow to use our weather pages